This demonstration page uses our WeatherBlox Daily Observations layout. Learn more.

Left ArrowRight Arrow

40.92945, -100.16068

Hourly Observations for July 13, 2020

Temp ( °F °C ) Dew Point ( °F °C ) Humidity (%) Winds ( mph kmh ) Pressure ( in mb ) Visibility ( mi km ) Precip ( " mm )
12:15 am 00:15 Clear 71 21.5 67 19.2 87 87 SE 13 20 29.82 1010 10 16.0934 0 0
12:35 am 00:35 Clear 70 21.1 66 18.8 87 87 SSE 10 17 29.82 1010 10 16.0934 0 0
12:55 am 00:55 Clear 70 21.2 65 18.3 84 84 SE 10 17 29.82 1010 10 16.0934 0 0
1:15 am 01:15 Clear 70 21.1 65 18.1 83 83 SE 10 17 29.82 1010 10 16.0934 0 0
1:35 am 01:35 Clear 70 20.9 64 18 84 84 SE 10 17 29.81 1010 10 16.0934 0 0
1:55 am 01:55 Clear 69 20.7 64 17.5 82 82 SSE 10 17 29.81 1009 10 16.0934 0 0
2:15 am 02:15 Clear 69 20.4 63 17.4 83 83 SE 10 17 29.81 1009 10 16.0934 0 0
2:35 am 02:35 Clear 68 20.1 63 17.2 83 83 SE 10 17 29.81 1010 10 16.0934 0 0
2:55 am 02:55 Clear 68 20 63 17.1 83 83 SE 10 17 29.81 1010 10 16.0934 0 0
3:15 am 03:15 Clear 67 19.5 63 17 86 86 SSE 7 11 29.82 1010 10 16.0934 0 0
3:35 am 03:35 Clear 66 19 62 16.9 88 88 SSE 7 11 29.82 1010 10 16.0934 0 0
3:55 am 03:55 Clear 66 19 62 16.9 88 88 SE 7 11 29.82 1010 10 16.0934 0 0
4:15 am 04:15 Clear 66 19.1 62 16.9 87 87 SSE 8 13 29.82 1010 10 16.0934 0 0
4:35 am 04:35 Clear 66 18.8 62 16.8 88 88 SSE 7 11 29.82 1010 10 16.0934 0 0
4:55 am 04:55 Clear 65 18.5 62 16.8 90 90 SSE 7 11 29.82 1010 10 16.0934 0 0
5:15 am 05:15 Clear 65 18.5 62 16.8 90 90 SSE 7 11 29.81 1009 10 16.0934 0 0
5:35 am 05:35 Clear 65 18.3 62 16.7 90 90 SSE 8 13 29.81 1009 10 16.0934 0 0
5:55 am 05:55 Clear 65 18.4 62 16.6 89 89 SSE 7 11 29.8 1009 10 16.0934 0 0
6:15 am 06:15 Clear 66 18.7 62 16.5 87 87 S 9 15 29.79 1009 10 16.0934 0 0
6:35 am 06:35 Sunny 65 18.6 62 16.5 88 88 SSE 7 11 29.79 1009 10 16.0934 0 0
6:55 am 06:55 Sunny 66 19 61 16.3 84 84 SSE 5 7 29.8 1009 10 16.0934 0 0
7:15 am 07:15 Sunny 67 19.6 62 16.5 82 82 SSE 5 7 29.8 1009 10 16.0934 0 0
7:35 am 07:35 Sunny 68 20.2 62 16.8 81 81 S 6 9 29.79 1009 10 16.0934 0 0
7:55 am 07:55 Sunny 70 21 62 16.8 77 77 S 7 11 29.78 1009 10 16.0934 0 0
8:15 am 08:15 Sunny 71 21.7 63 17 75 75 S 9 15 29.77 1008 10 16.0934 0 0
8:35 am 08:35 Sunny 73 22.7 63 17.3 72 72 S 13 20 29.76 1008 10 16.0934 0 0
8:55 am 08:55 Sunny 74 23.6 63 17.2 67 67 S 13 20 29.75 1008 10 16.0934 0 0
9:15 am 09:15 Sunny 76 24.7 63 17 62 62 S 13 20 29.73 1007 10 16.0934 0 0
9:35 am 09:35 Sunny 78 25.6 62 16.5 57 57 SSW 13 20 29.73 1007 10 16.0934 0 0
9:55 am 09:55 Sunny 80 26.5 61 16.2 53 53 SSW 13 20 29.73 1007 10 16.0934 0 0
10:15 am 10:15 Sunny 80 26.7 61 16.2 53 53 SSW 15 24 29.72 1006 10 16.0934 0 0
10:35 am 10:35 Sunny 81 27.2 62 16.6 52 52 SSW 16 26 29.72 1007 10 16.0934 0 0
10:55 am 10:55 Sunny 82 27.9 63 17.1 52 52 S 16 26 29.71 1006 10 16.0934 0 0
11:15 am 11:15 Sunny 83 28.2 63 17 51 51 SW 17 28 29.7 1006 10 16.0934 0 0
11:35 am 11:35 Sunny 84 29.1 63 17.3 49 49 SSW 17 28 29.7 1006 10 16.0934 0 0
11:55 am 11:55 Sunny 86 29.9 64 17.6 48 48 SSW 16 26 29.69 1005 10 16.0934 0 0
12:15 pm 12:15 Sunny 86 30.1 63 17.3 46 46 SSW 18 30 29.68 1005 10 16.0934 0 0
12:35 pm 12:35 Sunny 88 30.9 63 17.3 44 44 S 16 26 29.67 1005 10 16.0934 0 0
12:55 pm 12:55 Sunny 89 31.4 64 17.5 43 43 SSW 18 30 29.66 1004 10 16.0934 0 0
1:15 pm 13:15 Sunny 90 32.4 64 17.5 41 41 S 17 28 29.65 1004 10 16.0934 0 0
1:35 pm 13:35 Sunny 90 32.2 64 17.8 42 42 S 15 24 29.65 1004 10 16.0934 0 0
1:55 pm 13:55 Sunny 92 33.1 64 18 41 41 S 16 26 29.65 1004 10 16.0934 0 0
2:15 pm 14:15 Sunny 92 33.2 64 17.5 39 39 S 14 22 29.64 1004 10 16.0934 0 0
2:35 pm 14:35 Sunny 92 33.3 64 17.8 40 40 SSE 16 26 29.63 1004 10 16.0934 0 0
2:55 pm 14:55 Sunny 93 33.7 65 18.3 40 40 S 16 26 29.63 1003 10 16.0934 0 0
3:15 pm 15:15 Sunny 94 34.4 66 18.7 39 39 S 14 22 29.62 1003 10 16.0934 0 0
3:35 pm 15:35 Sunny 94 34.4 66 18.7 39 39 S 17 28 29.62 1003 10 16.0934 0 0
3:55 pm 15:55 Sunny 94 34.6 66 19 40 40 S 12 19 29.6 1003 10 16.0934 0 0
4:15 pm 16:15 Sunny 95 35 66 19.1 39 39 SSE 14 22 29.59 1002 10 16.0934 0 0
4:35 pm 16:35 Sunny 95 34.8 67 19.3 40 40 S 14 22 29.58 1002 10 16.0934 0 0
4:55 pm 16:55 Sunny 94 34.7 67 19.7 41 41 SSE 14 22 29.58 1002 10 16.0934 0 0
5:15 pm 17:15 Sunny 94 34.5 68 19.9 42 42 S 9 15 29.58 1002 10 16.0934 0 0
5:35 pm 17:35 Sunny 94 34.5 69 20.3 43 43 S 9 15 29.59 1002 10 16.0934 0 0
5:55 pm 17:55 Sunny 94 34.4 69 20.4 44 44 SSE 13 20 29.58 1002 10 16.0934 0 0
6:15 pm 18:15 Sunny 94 34.2 68 20.1 44 44 SE 14 22 29.57 1001 10 16.0934 0 0
6:35 pm 18:35 Sunny 91 33 69 20.5 48 48 SSE 15 24 29.57 1001 10 16.0934 0 0
6:55 pm 18:55 Sunny 91 32.5 70 20.9 50 50 SSE 15 24 29.57 1001 10 16.0934 0 0
7:15 pm 19:15 Sunny 90 32.3 69 20.6 50 50 SE 13 20 29.55 1001 10 16.0934 0 0
7:35 pm 19:35 Sunny 89 31.6 69 20.8 53 53 ESE 8 13 29.58 1002 10 16.0934 0 0
7:55 pm 19:55 Sunny 88 31 71 21.4 57 57 E 6 9 29.6 1002 10 16.0934 0 0
8:15 pm 20:15 Sunny 87 30.5 71 21.5 59 59 SE 9 15 29.63 1003 10 16.0934 0 0
8:35 pm 20:35 Sunny 86 29.9 71 21.6 61 61 SE 9 15 29.63 1003 10 16.0934 0 0
8:55 pm 20:55 Sunny 84 29.1 71 21.6 64 64 SE 8 13 29.66 1004 10 16.0934 0 0
9:15 pm 21:15 Clear with Nearby Thunderstorms 84 29.1 71 21.5 64 64 E 6 9 29.66 1004 10 16.0934 0 0
9:35 pm 21:35 Partly Cloudy with Nearby Thunderstorms 83 28.4 71 21.5 66 66 ESE 5 7 29.68 1005 10 16.0934 0 0
9:55 pm 21:55 Mostly Cloudy 71 21.4 62 16.6 74 74 W 39 63 29.82 1010 7 11.26538 0 0
10:15 pm 22:15 Cloudy with Heavy Rain 66 19 62 16.9 88 88 W 29 46 29.86 1011 3 4.82802 0.2 5.08
10:35 pm 22:35 Cloudy with Light Thunderstorms 67 19.3 63 17.2 88 88 W 13 20 29.87 1011 7 11.26538 0.26 6.604
10:55 pm 22:55 Mostly Cloudy with Light Thunderstorms 67 19.7 64 17.5 87 87 Calm 29.86 1011 10 16.0934 0.28 7.112
11:15 pm 23:15 Cloudy with Nearby Thunderstorms 70 21.3 63 17.2 78 78 Calm 29.81 1010 10 16.0934 0.02 0.508
11:35 pm 23:35 Cloudy 70 21.3 64 17.8 81 81 S 14 22 29.82 1010 10 16.0934 0.03 0.762
11:55 pm 23:55 Mostly Cloudy with Light Rain 71 21.4 64 18 81 81 SSE 31 50 29.68 1005 10 16.0934 0.04 1.016

Powered by AerisWeather